Regional Weather Roundup
Issued by NWS

Home | Current Version | Previous Version | Graphics & Text | Print | Product List | Glossary On
Versions: 1 2 3 4 5 6 7 8 9 10 11 12 13 14 15 16 17 18 19 20 21 22 23 24 25 26 27 28 29 30 31 32 33 34 35 36 37 38 39 40 41 42 43 44 45 46 47 48 49 50
000
ASUS43 KFSD 130702
RWRSD

WEATHER ROUNDUP FOR SOUTH DAKOTA
NATIONAL WEATHER SERVICE SIOUX FALLS SD
100 AM CST SAT FEB 13 2016

NOTE: "FAIR" INDICATES FEW OR NO CLOUDS BELOW 12,000 FEET WITH NO
SIGNIFICANT WEATHER AND/OR OBSTRUCTIONS TO VISIBILITY.


SDZ001>005-009-010-012>017-130800-
NORTHWEST AND NORTH CENTRAL SOUTH DAKOTA

CITY           SKY/WX    TMP DP  RH WIND       PRES   REMARKS
BUFFALO          N/A     18  15  88 SE21G28   30.12F WCI   1
FAITH            N/A     14   9  80 SE22G28   30.30F WCI  -4
MOBRIDGE       CLOUDY     8   2  76 SE15      30.45F WCI  -9
$$

SDZ012>016-024>037-041>051-057-063-072>074-130800-
SOUTHWEST AND SOUTH CENTRAL SOUTH DAKOTA

CITY           SKY/WX    TMP DP  RH WIND       PRES   REMARKS
RAPID CTY ARPT CLOUDY    25  22  88 SE15      30.19F WCI  13
PIERRE         CLOUDY    12   6  77 SE18      30.45F WCI  -6
CUSTER         FOG       25  22  88 W8        30.13F VSB 3/4 WCI  16
ELLSWORTH AFB  CLOUDY    24  23  96 SE13      30.16F WCI  13
PHILIP         LGT SNOW  20  15  81 E12       30.35F WCI   8
PINE RIDGE     CLOUDY    33  28  81 S16       30.23F WCI  23
WINNER         FLURRIES  17   9  70 SE16      30.45F WCI   2
$$

SDZ004>011-016>023-039-040-130800-
NORTHEAST SOUTH DAKOTA

CITY           SKY/WX    TMP DP  RH WIND       PRES   REMARKS
ABERDEEN       CLOUDY     0  -8  69 E5        30.61F WCI -10
WATERTOWN      CLOUDY    -7 -14  71 SW3       30.57R
BROOKINGS      CLOUDY    -8 -13  78 W3        30.58R
SISSETON         N/A    -10 -15  78 CALM      30.63F
$$

SDZ017-020-022-023-036>040-048>070-130800-
SOUTHEAST SOUTH DAKOTA

CITY           SKY/WX    TMP DP  RH WIND       PRES   REMARKS
SIOUX FALLS    CLOUDY    -3  -9  75 N6        30.61F WCI -15
HURON          CLOUDY     3  -4  72 SE6       30.61F WCI  -8
MITCHELL       CLOUDY     5  -4  66 E6        30.63F WCI  -6
YANKTON        CLOUDY     7  -2  66 E3        30.63S
$$

ABBREVIATIONS USED IN REMARKS
   TC - TEMPERATURE IN CELSIUS
  WCI - WIND CHILL INDEX
   HX - HEAT INDEX
  VSB - VISIBILITY




USA.gov is the U.S. government's official web portal to all federal, state and local government web resources and services.